| time (UTC) | temp C | wind direction | speed KPH | gust KPH | rain 1hr cm | rain 24hr cm | rain mn cm | humidity % | barometer mb |
| 20260506202109 | 20 | 148 | 4.8 | 6.4 | 0.00 | 0.03 | 0.03 | 86 | 1008.3 |
| 20260506201607 | 20 | 202 | 3.2 | 6.4 | 0.00 | 0.03 | 0.03 | 86 | 1008.5 |
| 20260506201103 | 20 | 168 | 4.8 | 16.1 | 0.00 | 0.03 | 0.03 | 86 | 1008.5 |
| 20260506200559 | 20 | 248 | 9.7 | 12.9 | 0.00 | 0.03 | 0.03 | 86 | 1008.4 |
| 20260506200056 | 20 | 222 | 1.6 | 9.7 | 0.00 | 0.03 | 0.03 | 86 | 1008.4 |
| 20260506195553 | 20 | 232 | 6.4 | 16.1 | 0.00 | 0.03 | 0.03 | 86 | 1008.5 |
| 20260506195049 | 20 | 81 | 6.4 | 9.7 | 0.00 | 0.03 | 0.03 | 86 | 1008.7 |
| 20260506194547 | 20 | 128 | 4.8 | 12.9 | 0.00 | 0.03 | 0.03 | 86 | 1008.8 |
| 20260506194043 | 19 | 199 | 0.0 | 4.8 | 0.00 | 0.03 | 0.03 | 88 | 1008.9 |
| 20260506193541 | 19 | 175 | 4.8 | 6.4 | 0.00 | 0.03 | 0.03 | 88 | 1008.9 |
| 20260506193038 | 19 | 272 | 0.0 | 9.7 | 0.00 | 0.03 | 0.03 | 88 | 1009.1 |
| 20260506192535 | 19 | 236 | 8.0 | 17.7 | 0.00 | 0.03 | 0.03 | 88 | 1009.0 |
| 20260506192030 | 19 | 201 | 6.4 | 16.1 | 0.00 | 0.03 | 0.03 | 88 | 1009.0 |
| 20260506191527 | 19 | 283 | 1.6 | 12.9 | 0.00 | 0.03 | 0.03 | 88 | 1009.0 |
| 20260506191024 | 19 | 197 | 8.0 | 12.9 | 0.00 | 0.03 | 0.03 | 88 | 1009.0 |
| 20260506190521 | 19 | 182 | 3.2 | 12.9 | 0.00 | 0.03 | 0.03 | 88 | 1009.0 |
| 20260506190019 | 19 | 210 | 6.4 | 14.5 | 0.00 | 0.03 | 0.03 | 89 | 1008.8 |
| 20260506185515 | 18 | 243 | 3.2 | 6.4 | 0.00 | 0.03 | 0.03 | 89 | 1008.9 |
| 20260506185011 | 18 | 274 | 4.8 | 16.1 | 0.00 | 0.03 | 0.03 | 89 | 1009.0 |
| 20260506184509 | 18 | 142 | 4.8 | 6.4 | 0.00 | 0.03 | 0.03 | 90 | 1009.1 |
| 20260506184006 | 18 | 123 | 1.6 | 9.7 | 0.00 | 0.03 | 0.03 | 90 | 1009.1 |
| 20260506183501 | 18 | 187 | 8.0 | 11.3 | 0.00 | 0.03 | 0.03 | 90 | 1009.2 |
| 20260506182959 | 18 | 180 | 1.6 | 16.1 | 0.00 | 0.03 | 0.03 | 91 | 1009.4 |
| 20260506182456 | 18 | 189 | 9.7 | 12.9 | 0.00 | 0.03 | 0.03 | 91 | 1009.5 |
| 20260506181953 | 18 | 199 | 4.8 | 9.7 | 0.00 | 0.03 | 0.03 | 91 | 1009.5 |
| 20260506181451 | 18 | 248 | 8.0 | 16.1 | 0.00 | 0.03 | 0.03 | 90 | 1009.3 |
| 20260506180947 | 18 | 133 | 4.8 | 20.9 | 0.00 | 0.03 | 0.03 | 89 | 1009.5 |
| 20260506180444 | 19 | 107 | 11.3 | 20.9 | 0.00 | 0.03 | 0.03 | 88 | 1009.4 |
| 20260506175941 | 19 | 102 | 8.0 | 17.7 | 0.00 | 0.03 | 0.03 | 86 | 1009.3 |
| 20260506175437 | 19 | 157 | 0.0 | 14.5 | 0.00 | 0.03 | 0.03 | 87 | 1009.4 |
| 20260506174934 | 18 | 208 | 3.2 | 11.3 | 0.00 | 0.03 | 0.03 | 87 | 1009.4 |
| 20260506174432 | 19 | 226 | 0.0 | 6.4 | 0.00 | 0.03 | 0.03 | 87 | 1009.6 |
| 20260506173929 | 19 | 145 | 4.8 | 12.9 | 0.00 | 0.03 | 0.03 | 86 | 1009.6 |
| 20260506173426 | 19 | 187 | 3.2 | 6.4 | 0.00 | 0.03 | 0.03 | 86 | 1009.5 |
| 20260506172923 | 19 | 221 | 17.7 | 29.0 | 0.00 | 0.03 | 0.03 | 86 | 1009.7 |
| 20260506172420 | 19 | 146 | 1.6 | 9.7 | 0.00 | 0.03 | 0.03 | 87 | 1009.5 |
| 20260506171916 | 19 | 184 | 8.0 | 9.7 | 0.00 | 0.03 | 0.03 | 87 | 1009.8 |
| 20260506171414 | 19 | 145 | 9.7 | 16.1 | 0.00 | 0.03 | 0.03 | 86 | 1009.7 |
| 20260506170912 | 18 | 159 | 9.7 | 22.5 | 0.00 | 0.03 | 0.03 | 88 | 1009.7 |
| 20260506170408 | 19 | 280 | 1.6 | 6.4 | 0.00 | 0.03 | 0.03 | 89 | 1009.7 |
| 20260506165907 | 19 | 247 | 11.3 | 14.5 | 0.00 | 0.03 | 0.03 | 89 | 1010.0 |
| 20260506165405 | 19 | 274 | 1.6 | 9.7 | 0.00 | 0.03 | 0.03 | 88 | 1009.9 |
| 20260506164900 | 19 | 99 | 9.7 | 22.5 | 0.13 | 0.03 | 0.03 | 85 | 1010.0 |
| 20260506164357 | 20 | 175 | 8.0 | 14.5 | 0.13 | 0.03 | 0.03 | 86 | 1009.9 |
| 20260506163855 | 20 | 57 | 8.0 | 16.1 | 0.00 | 0.00 | 0.00 | 87 | 1010.0 |
| 20260506163350 | 19 | 139 | 3.2 | 20.9 | 0.00 | 0.00 | 0.00 | 87 | 1010.1 |
| 20260506162845 | 20 | 180 | 8.0 | 17.7 | 0.00 | 0.00 | 0.00 | 83 | 1010.3 |
| 20260506162343 | 20 | 231 | 3.2 | 6.4 | 0.00 | 0.00 | 0.00 | 82 | 1010.5 |
| 20260506161840 | 20 | 140 | 4.8 | 4.8 | 0.00 | 0.00 | 0.00 | 84 | 1010.8 |
| 20260506161337 | 20 | 209 | 4.8 | 6.4 | 0.00 | 0.00 | 0.00 | 82 | 1010.8 |
| 20260506160835 | 20 | 241 | 3.2 | 12.9 | 0.00 | 0.00 | 0.00 | 81 | 1011.0 |
| 20260506160331 | 20 | 174 | 3.2 | 3.2 | 0.00 | 0.00 | 0.00 | 82 | 1011.1 |
| 20260506155830 | 20 | 193 | 9.7 | 16.1 | 0.00 | 0.00 | 0.00 | 80 | 1011.0 |
| 20260506155326 | 20 | 277 | 3.2 | 6.4 | 0.00 | 0.00 | 0.00 | 81 | 1011.2 |
| 20260506153439 | 20 | 135 | 6.4 | 14.5 | 0.00 | 0.00 | 0.00 | 78 | 1010.9 |
| 20260506152936 | 20 | 180 | 6.4 | 12.9 | 0.00 | 0.00 | 0.00 | 79 | 1010.8 |
| 20260506152433 | 20 | 203 | 16.1 | 20.9 | 0.00 | 0.00 | 0.00 | 76 | 1010.8 |
| 20260506151932 | 20 | 174 | 3.2 | 9.7 | 0.00 | 0.00 | 0.00 | 75 | 1011.0 |
| 20260506151428 | 20 | 122 | 4.8 | 12.9 | 0.00 | 0.00 | 0.00 | 75 | 1011.0 |
| 20260506150926 | 21 | 213 | 3.2 | 12.9 | 0.00 | 0.00 | 0.00 | 74 | 1010.7 |
| 20260506150422 | 21 | 200 | 8.0 | 11.3 | 0.00 | 0.00 | 0.00 | 73 | 1010.7 |
| 20260506145919 | 21 | 193 | 8.0 | 16.1 | 0.00 | 0.00 | 0.00 | 72 | 1011.0 |
| 20260506145415 | 21 | 164 | 3.2 | 9.7 | 0.00 | 0.00 | 0.00 | 73 | 1010.9 |
| 20260506144913 | 21 | 57 | 1.6 | 6.4 | 0.00 | 0.00 | 0.00 | 74 | 1011.1 |
| 20260506144409 | 20 | 144 | 4.8 | 6.4 | 0.00 | 0.00 | 0.00 | 74 | 1011.0 |
| 20260506143908 | 20 | 59 | 3.2 | 4.8 | 0.00 | 0.00 | 0.00 | 74 | 1011.2 |
| 20260506143404 | 20 | 157 | 6.4 | 14.5 | 0.00 | 0.00 | 0.00 | 74 | 1011.3 |
| 20260506142902 | 20 | 249 | 8.0 | 11.3 | 0.00 | 0.00 | 0.00 | 74 | 1011.3 |
| 20260506142400 | 20 | 232 | 9.7 | 14.5 | 0.00 | 0.00 | 0.00 | 73 | 1011.2 |
| 20260506141858 | 20 | 186 | 6.4 | 16.1 | 0.00 | 0.00 | 0.00 | 73 | 1011.2 |
| 20260506141356 | 21 | 202 | 11.3 | 16.1 | 0.00 | 0.00 | 0.00 | 73 | 1010.9 |
| 20260506140854 | 21 | 245 | 3.2 | 9.7 | 0.00 | 0.00 | 0.00 | 73 | 1011.1 |
| 20260506140350 | 21 | 226 | 4.8 | 9.7 | 0.00 | 0.00 | 0.00 | 73 | 1010.9 |
| 20260506135847 | 21 | 279 | 12.9 | 22.5 | 0.00 | 0.00 | 0.00 | 74 | 1010.9 |
| 20260506135344 | 20 | 99 | 3.2 | 4.8 | 0.00 | 0.00 | 0.00 | 75 | 1010.9 |
| 20260506134840 | 20 | 135 | 8.0 | 11.3 | 0.00 | 0.00 | 0.00 | 75 | 1010.9 |
| 20260506134337 | 20 | 217 | 8.0 | 12.9 | 0.00 | 0.00 | 0.00 | 76 | 1010.9 |
| 20260506133834 | 20 | 222 | 6.4 | 24.1 | 0.00 | 0.00 | 0.00 | 76 | 1010.9 |
| 20260506133331 | 20 | 177 | 6.4 | 11.3 | 0.00 | 0.00 | 0.00 | 76 | 1010.8 |
| 20260506132827 | 20 | 141 | 3.2 | 4.8 | 0.00 | 0.00 | 0.00 | 77 | 1011.0 |
| 20260506132325 | 20 | 133 | 6.4 | 20.9 | 0.00 | 0.00 | 0.00 | 76 | 1010.9 |
| 20260506131822 | 20 | 254 | 4.8 | 14.5 | 0.00 | 0.00 | 0.00 | 75 | 1011.2 |
| 20260506131318 | 20 | 176 | 4.8 | 14.5 | 0.00 | 0.00 | 0.00 | 75 | 1011.1 |
| 20260506130816 | 20 | 193 | 4.8 | 9.7 | 0.00 | 0.00 | 0.00 | 76 | 1011.1 |
| 20260506130312 | 20 | 202 | 6.4 | 16.1 | 0.00 | 0.00 | 0.00 | 76 | 1011.0 |
| 20260506125810 | 20 | 180 | 14.5 | 17.7 | 0.00 | 0.00 | 0.00 | 75 | 1010.9 |
| 20260506125308 | 20 | 192 | 3.2 | 14.5 | 0.00 | 0.00 | 0.00 | 76 | 1011.0 |
| 20260506124807 | 20 | 225 | 11.3 | 16.1 | 0.00 | 0.00 | 0.00 | 75 | 1011.2 |
| 20260506124303 | 20 | 188 | 4.8 | 12.9 | 0.00 | 0.00 | 0.00 | 76 | 1011.2 |
| 20260506123801 | 20 | 194 | 8.0 | 20.9 | 0.00 | 0.00 | 0.00 | 76 | 1011.2 |
| 20260506123259 | 20 | 193 | 6.4 | 17.7 | 0.00 | 0.00 | 0.00 | 78 | 1011.1 |
| 20260506122755 | 20 | 170 | 4.8 | 20.9 | 0.00 | 0.00 | 0.00 | 78 | 1011.2 |
| 20260506122253 | 20 | 187 | 4.8 | 20.9 | 0.00 | 0.00 | 0.00 | 78 | 1011.1 |
| 20260506121751 | 19 | 176 | 8.0 | 14.5 | 0.00 | 0.00 | 0.00 | 79 | 1011.0 |
| 20260506121248 | 19 | 241 | 1.6 | 12.9 | 0.00 | 0.00 | 0.00 | 79 | 1011.2 |
| 20260506120745 | 19 | 142 | 6.4 | 14.5 | 0.00 | 0.00 | 0.00 | 80 | 1011.1 |
| 20260506120243 | 18 | 162 | 4.8 | 9.7 | 0.00 | 0.00 | 0.00 | 82 | 1011.2 |
| 20260506115740 | 18 | 174 | 3.2 | 12.9 | 0.00 | 0.00 | 0.00 | 84 | 1011.3 |
| 20260506115238 | 18 | 125 | 6.4 | 17.7 | 0.00 | 0.00 | 0.00 | 83 | 1011.3 |
| 20260506114736 | 18 | 113 | 3.2 | 9.7 | 0.00 | 0.00 | 0.00 | 83 | 1011.2 |
| 20260506114233 | 18 | 162 | 3.2 | 11.3 | 0.00 | 0.00 | 0.00 | 84 | 1011.3 |
| 20260506113731 | 18 | 129 | 1.6 | 9.7 | 0.00 | 0.00 | 0.00 | 84 | 1011.2 |
| 20260506113228 | 18 | 184 | 4.8 | 12.9 | 0.00 | 0.00 | 0.00 | 84 | 1011.2 |
| 20260506112724 | 18 | 95 | 8.0 | 12.9 | 0.00 | 0.00 | 0.00 | 84 | 1011.3 |
| 20260506112222 | 18 | 201 | 3.2 | 12.9 | 0.00 | 0.00 | 0.00 | 84 | 1011.3 |
| 20260506111720 | 18 | 203 | 14.5 | 20.9 | 0.00 | 0.00 | 0.00 | 84 | 1011.2 |
| 20260506111218 | 18 | 121 | 3.2 | 12.9 | 0.00 | 0.00 | 0.00 | 84 | 1011.5 |
| 20260506110714 | 18 | 139 | 1.6 | 6.4 | 0.00 | 0.00 | 0.00 | 84 | 1011.4 |
| 20260506110212 | 18 | 195 | 9.7 | 14.5 | 0.00 | 0.00 | 0.00 | 84 | 1011.3 |
| 20260506105708 | 17 | 205 | 8.0 | 11.3 | 0.00 | 0.00 | 0.00 | 86 | 1011.2 |
| 20260506105205 | 17 | 219 | 8.0 | 24.1 | 0.00 | 0.00 | 0.00 | 86 | 1011.3 |
| 20260506104704 | 17 | 180 | 4.8 | 17.7 | 0.00 | 0.00 | 0.00 | 86 | 1011.2 |
| 20260506104201 | 17 | 108 | 1.6 | 9.7 | 0.00 | 0.00 | 0.00 | 86 | 1011.2 |
| 20260506103657 | 17 | 204 | 4.8 | 12.9 | 0.00 | 0.00 | 0.00 | 86 | 1011.2 |
| 20260506103155 | 17 | 123 | 8.0 | 9.7 | 0.00 | 0.00 | 0.00 | 87 | 1011.1 |
| 20260506102653 | 17 | 79 | 8.0 | 17.7 | 0.00 | 0.00 | 0.00 | 87 | 1011.2 |
| 20260506102150 | 17 | 185 | 9.7 | 12.9 | 0.00 | 0.00 | 0.00 | 88 | 1011.2 |
| 20260506101646 | 17 | 206 | 3.2 | 9.7 | 0.00 | 0.00 | 0.00 | 88 | 1011.4 |
| 20260506101143 | 17 | 233 | 6.4 | 11.3 | 0.00 | 0.00 | 0.00 | 88 | 1011.5 |
| 20260506100642 | 17 | 173 | 8.0 | 9.7 | 0.00 | 0.00 | 0.00 | 88 | 1011.4 |
| 20260506100140 | 17 | 197 | 9.7 | 16.1 | 0.00 | 0.00 | 0.00 | 88 | 1011.4 |
| 20260506095638 | 17 | 177 | 1.6 | 9.7 | 0.00 | 0.00 | 0.00 | 88 | 1011.3 |
| 20260506095134 | 17 | 160 | 4.8 | 11.3 | 0.00 | 0.00 | 0.00 | 88 | 1011.2 |
| 20260506094632 | 17 | 163 | 4.8 | 11.3 | 0.00 | 0.00 | 0.00 | 88 | 1011.1 |
| 20260506094130 | 17 | 226 | 3.2 | 9.7 | 0.00 | 0.00 | 0.00 | 88 | 1011.1 |
| 20260506093628 | 17 | 189 | 3.2 | 20.9 | 0.00 | 0.00 | 0.00 | 88 | 1011.1 |
| 20260506093124 | 17 | 213 | 4.8 | 14.5 | 0.00 | 0.00 | 0.00 | 88 | 1011.0 |
| 20260506092623 | 17 | 193 | 3.2 | 14.5 | 0.00 | 0.00 | 0.00 | 88 | 1011.1 |
| 20260506092119 | 17 | 237 | 3.2 | 11.3 | 0.00 | 0.00 | 0.00 | 88 | 1011.1 |
| 20260506091617 | 17 | 155 | 3.2 | 9.7 | 0.00 | 0.00 | 0.00 | 88 | 1011.1 |
| 20260506091114 | 17 | 236 | 6.4 | 9.7 | 0.00 | 0.00 | 0.00 | 88 | 1011.2 |
| 20260506090613 | 17 | 217 | 6.4 | 22.5 | 0.00 | 0.00 | 0.00 | 87 | 1011.1 |
| 20260506090108 | 17 | 241 | 4.8 | 16.1 | 0.00 | 0.00 | 0.00 | 87 | 1011.3 |
| 20260506085605 | 17 | 172 | 6.4 | 12.9 | 0.00 | 0.00 | 0.00 | 88 | 1011.2 |
| 20260506085102 | 17 | 196 | 9.7 | 11.3 | 0.00 | 0.00 | 0.00 | 88 | 1011.3 |
| 20260506084559 | 18 | 170 | 1.6 | 16.1 | 0.00 | 0.00 | 0.00 | 87 | 1011.2 |
| 20260506084055 | 18 | 174 | 4.8 | 6.4 | 0.00 | 0.00 | 0.00 | 88 | 1011.1 |
| 20260506083552 | 18 | 148 | 4.8 | 14.5 | 0.00 | 0.00 | 0.00 | 87 | 1011.4 |
| 20260506083049 | 18 | 169 | 9.7 | 16.1 | 0.00 | 0.00 | 0.00 | 87 | 1011.4 |
| 20260506082546 | 18 | 146 | 6.4 | 12.9 | 0.00 | 0.00 | 0.00 | 88 | 1011.3 |
| 20260506082042 | 18 | 212 | 3.2 | 9.7 | 0.00 | 0.00 | 0.00 | 88 | 1011.3 |
| 20260506081540 | 18 | 205 | 6.4 | 11.3 | 0.00 | 0.00 | 0.00 | 87 | 1011.4 |
| 20260506081037 | 18 | 244 | 6.4 | 20.9 | 0.00 | 0.00 | 0.00 | 86 | 1011.3 |
| 20260506080535 | 18 | 224 | 3.2 | 12.9 | 0.00 | 0.00 | 0.00 | 87 | 1011.3 |
| 20260506073518 | 18 | 143 | 4.8 | 12.9 | 0.00 | 0.00 | 0.00 | 86 | 1011.4 |
| 20260506073015 | 18 | 210 | 1.6 | 9.7 | 0.00 | 0.00 | 0.00 | 86 | 1011.4 |
| 20260506072512 | 18 | 108 | 3.2 | 9.7 | 0.00 | 0.00 | 0.00 | 86 | 1011.5 |
| 20260506072010 | 18 | 99 | 3.2 | 9.7 | 0.00 | 0.00 | 0.00 | 86 | 1011.3 |
| 20260506071508 | 18 | 151 | 4.8 | 9.7 | 0.00 | 0.00 | 0.00 | 86 | 1011.4 |
| 20260506071005 | 18 | 151 | 1.6 | 4.8 | 0.00 | 0.00 | 0.00 | 86 | 1011.5 |
| 20260506070502 | 18 | 154 | 3.2 | 9.7 | 0.00 | 0.00 | 0.00 | 86 | 1011.6 |
| 20260506062439 | 18 | 81 | 0.0 | 6.4 | 0.00 | 0.00 | 0.00 | 86 | 1011.7 |
| 20260506061935 | 18 | 217 | 3.2 | 16.1 | 0.00 | 0.00 | 0.00 | 85 | 1011.6 |
| 20260506061432 | 18 | 178 | 3.2 | 11.3 | 0.00 | 0.00 | 0.00 | 85 | 1011.6 |
| 20260506060930 | 18 | 209 | 12.9 | 14.5 | 0.00 | 0.00 | 0.00 | 85 | 1011.6 |
| 20260506060428 | 18 | 170 | 8.0 | 11.3 | 0.00 | 0.00 | 0.00 | 85 | 1011.7 |
| 20260506051400 | 19 | 175 | 4.8 | 12.9 | 0.00 | 0.00 | 0.00 | 82 | 1011.8 |
| 20260506050857 | 19 | 145 | 1.6 | 17.7 | 0.00 | 0.00 | 0.00 | 82 | 1011.8 |
| 20260506050354 | 19 | 235 | 6.4 | 9.7 | 0.00 | 0.00 | 0.00 | 82 | 1012.1 |
| 20260506044845 | 19 | 194 | 3.2 | 9.7 | 0.00 | 0.00 | 0.00 | 82 | 1012.1 |
| 20260506044343 | 20 | 151 | 6.4 | 20.9 | 0.00 | 0.00 | 0.00 | 81 | 1011.9 |
| 20260506043839 | 19 | 161 | 4.8 | 14.5 | 0.00 | 0.00 | 0.00 | 81 | 1012.0 |
| 20260506043337 | 20 | 174 | 6.4 | 9.7 | 0.00 | 0.00 | 0.00 | 81 | 1012.0 |
| 20260506042835 | 20 | 136 | 14.5 | 17.7 | 0.00 | 0.00 | 0.00 | 80 | 1012.0 |
| 20260506042334 | 20 | 203 | 3.2 | 14.5 | 0.00 | 0.00 | 0.00 | 80 | 1012.2 |
| 20260506041832 | 19 | 169 | 11.3 | 16.1 | 0.00 | 0.00 | 0.00 | 80 | 1012.1 |
| 20260506041329 | 20 | 169 | 6.4 | 14.5 | 0.00 | 0.00 | 0.00 | 80 | 1012.1 |
| 20260506040826 | 20 | 194 | 4.8 | 11.3 | 0.00 | 0.00 | 0.00 | 80 | 1012.0 |
| 20260506040323 | 20 | 196 | 6.4 | 9.7 | 0.00 | 0.00 | 0.00 | 79 | 1012.1 |
| 20260506035819 | 20 | 198 | 11.3 | 22.5 | 0.00 | 0.00 | 0.00 | 79 | 1012.0 |
| 20260506035317 | 20 | 187 | 8.0 | 12.9 | 0.00 | 0.00 | 0.00 | 78 | 1011.9 |
| 20260506034814 | 20 | 177 | 4.8 | 16.1 | 0.00 | 0.00 | 0.00 | 78 | 1012.0 |
| 20260506034311 | 20 | 178 | 8.0 | 14.5 | 0.00 | 0.00 | 0.00 | 78 | 1012.1 |
| 20260506033808 | 20 | 248 | 8.0 | 17.7 | 0.00 | 0.00 | 0.00 | 77 | 1011.8 |
| 20260506033305 | 20 | 220 | 4.8 | 16.1 | 0.00 | 0.00 | 0.00 | 77 | 1012.1 |
| 20260506032802 | 20 | 240 | 8.0 | 12.9 | 0.00 | 0.00 | 0.00 | 77 | 1011.9 |
| 20260506032259 | 20 | 184 | 3.2 | 9.7 | 0.00 | 0.00 | 0.00 | 77 | 1012.0 |
| 20260506031755 | 20 | 191 | 12.9 | 25.7 | 0.00 | 0.00 | 0.00 | 76 | 1012.0 |
| 20260506031253 | 20 | 243 | 6.4 | 12.9 | 0.00 | 0.00 | 0.00 | 75 | 1012.0 |
| 20260506030751 | 20 | 235 | 9.7 | 22.5 | 0.00 | 0.00 | 0.00 | 75 | 1012.1 |
| 20260506030248 | 20 | 128 | 1.6 | 12.9 | 0.00 | 0.00 | 0.00 | 76 | 1012.2 |
| 20260506025745 | 20 | 122 | 11.3 | 20.9 | 0.00 | 0.00 | 0.00 | 75 | 1012.0 |
| 20260506025241 | 20 | 209 | 8.0 | 17.7 | 0.00 | 0.00 | 0.00 | 74 | 1012.0 |
| 20260506024738 | 20 | 266 | 9.7 | 16.1 | 0.00 | 0.00 | 0.00 | 74 | 1012.2 |
| 20260506024235 | 20 | 214 | 1.6 | 12.9 | 0.00 | 0.00 | 0.00 | 73 | 1012.1 |
| 20260506023731 | 20 | 226 | 6.4 | 16.1 | 0.00 | 0.00 | 0.00 | 73 | 1012.1 |
| 20260506023228 | 21 | 201 | 6.4 | 14.5 | 0.00 | 0.00 | 0.00 | 72 | 1012.1 |
| 20260506022725 | 21 | 156 | 14.5 | 22.5 | 0.00 | 0.00 | 0.00 | 71 | 1011.9 |
| 20260506022223 | 21 | 210 | 14.5 | 20.9 | 0.00 | 0.00 | 0.00 | 71 | 1012.1 |
| 20260506021721 | 21 | 152 | 8.0 | 12.9 | 0.00 | 0.00 | 0.00 | 70 | 1011.9 |
| 20260506021218 | 21 | 184 | 12.9 | 16.1 | 0.00 | 0.00 | 0.00 | 70 | 1012.1 |
| 20260506020714 | 21 | 146 | 3.2 | 12.9 | 0.00 | 0.00 | 0.00 | 70 | 1012.1 |
| 20260506020212 | 21 | 170 | 8.0 | 14.5 | 0.00 | 0.00 | 0.00 | 69 | 1012.0 |
| 20260506015709 | 21 | 204 | 4.8 | 14.5 | 0.00 | 0.00 | 0.00 | 68 | 1012.0 |
| 20260506015207 | 21 | 190 | 6.4 | 14.5 | 0.00 | 0.00 | 0.00 | 68 | 1011.8 |
| 20260506014704 | 21 | 205 | 4.8 | 24.1 | 0.00 | 0.00 | 0.00 | 68 | 1011.8 |
| 20260506014159 | 21 | 160 | 4.8 | 9.7 | 0.00 | 0.00 | 0.00 | 68 | 1011.7 |
| 20260506013658 | 21 | 118 | 6.4 | 9.7 | 0.00 | 0.00 | 0.00 | 68 | 1011.8 |
| 20260506013154 | 21 | 136 | 3.2 | 9.7 | 0.00 | 0.00 | 0.00 | 68 | 1011.8 |
| 20260506012650 | 21 | 204 | 4.8 | 9.7 | 0.00 | 0.00 | 0.00 | 68 | 1011.7 |
| 20260506012147 | 21 | 168 | 8.0 | 9.7 | 0.00 | 0.00 | 0.00 | 68 | 1011.8 |
| 20260506011645 | 21 | 151 | 1.6 | 14.5 | 0.00 | 0.00 | 0.00 | 68 | 1011.7 |
| 20260506011141 | 21 | 140 | 4.8 | 12.9 | 0.00 | 0.00 | 0.00 | 68 | 1011.6 |
| 20260506010640 | 21 | 176 | 4.8 | 11.3 | 0.00 | 0.00 | 0.00 | 67 | 1011.5 |
| 20260506010137 | 21 | 188 | 8.0 | 14.5 | 0.00 | 0.00 | 0.00 | 67 | 1011.5 |
| 20260506005633 | 21 | 183 | 9.7 | 12.9 | 0.00 | 0.00 | 0.00 | 67 | 1011.6 |
| 20260506005130 | 21 | 125 | 3.2 | 12.9 | 0.00 | 0.00 | 0.00 | 67 | 1011.7 |
| 20260506004626 | 21 | 178 | 3.2 | 9.7 | 0.00 | 0.00 | 0.00 | 68 | 1011.5 |
| 20260506004124 | 21 | 158 | 8.0 | 22.5 | 0.00 | 0.00 | 0.00 | 68 | 1011.5 |
| 20260506003620 | 22 | 150 | 11.3 | 12.9 | 0.00 | 0.00 | 0.00 | 67 | 1011.3 |
| 20260506003116 | 22 | 165 | 3.2 | 12.9 | 0.00 | 0.00 | 0.00 | 67 | 1011.3 |
| 20260506002612 | 22 | 129 | 6.4 | 12.9 | 0.00 | 0.00 | 0.00 | 66 | 1011.2 |
| 20260506002108 | 22 | 162 | 3.2 | 9.7 | 0.00 | 0.00 | 0.00 | 64 | 1011.2 |
| 20260506001605 | 22 | 182 | 1.6 | 6.4 | 0.00 | 0.00 | 0.00 | 62 | 1011.1 |
| 20260506001102 | 23 | 123 | 6.4 | 9.7 | 0.00 | 0.00 | 0.00 | 61 | 1011.0 |
| 20260506000559 | 23 | 186 | 6.4 | 12.9 | 0.00 | 0.00 | 0.00 | 59 | 1010.9 |
| 20260506000056 | 23 | 215 | 0.0 | 4.8 | 0.00 | 0.00 | 0.00 | 58 | 1011.0 |
| 20260505235554 | 23 | 177 | 6.4 | 20.9 | 0.00 | 0.00 | 0.00 | 57 | 1010.9 |
| 20260505235051 | 24 | 228 | 3.2 | 6.4 | 0.00 | 0.00 | 0.00 | 56 | 1010.8 |
| 20260505234548 | 24 | 249 | 9.7 | 14.5 | 0.00 | 0.00 | 0.00 | 55 | 1011.0 |
| 20260505234045 | 24 | 175 | 6.4 | 17.7 | 0.00 | 0.00 | 0.00 | 54 | 1010.9 |
| 20260505233542 | 25 | 208 | 11.3 | 12.9 | 0.00 | 0.00 | 0.00 | 53 | 1010.8 |
| 20260505233040 | 25 | 130 | 4.8 | 14.5 | 0.00 | 0.00 | 0.00 | 52 | 1010.6 |
| 20260505232537 | 25 | 163 | 4.8 | 6.4 | 0.00 | 0.00 | 0.00 | 50 | 1010.6 |
| 20260505232035 | 25 | 109 | 6.4 | 9.7 | 0.00 | 0.00 | 0.00 | 50 | 1010.4 |
| 20260505231531 | 25 | 121 | 1.6 | 12.9 | 0.00 | 0.00 | 0.00 | 50 | 1010.3 |
| 20260505231030 | 25 | 210 | 3.2 | 14.5 | 0.00 | 0.00 | 0.00 | 49 | 1010.5 |
| 20260505230527 | 25 | 154 | 6.4 | 11.3 | 0.00 | 0.00 | 0.00 | 50 | 1010.4 |
| 20260505230024 | 26 | 52 | 1.6 | 4.8 | 0.00 | 0.00 | 0.00 | 49 | 1010.3 |
| 20260505225520 | 26 | 194 | 6.4 | 12.9 | 0.00 | 0.00 | 0.00 | 49 | 1010.3 |
| 20260505225016 | 26 | 189 | 11.3 | 25.7 | 0.00 | 0.00 | 0.00 | 49 | 1010.4 |
| 20260505224514 | 26 | 149 | 6.4 | 12.9 | 0.00 | 0.00 | 0.00 | 49 | 1010.4 |
| 20260505224011 | 26 | 201 | 8.0 | 27.4 | 0.00 | 0.00 | 0.00 | 49 | 1010.4 |
| 20260505223508 | 26 | 117 | 4.8 | 20.9 | 0.00 | 0.00 | 0.00 | 48 | 1010.2 |
| 20260505223004 | 26 | 319 | 6.4 | 25.7 | 0.00 | 0.00 | 0.00 | 48 | 1010.2 |
| 20260505222501 | 26 | 184 | 12.9 | 14.5 | 0.00 | 0.00 | 0.00 | 48 | 1010.4 |
| 20260505221956 | 26 | 88 | 9.7 | 20.9 | 0.00 | 0.00 | 0.00 | 48 | 1010.3 |
| 20260505221454 | 26 | 150 | 3.2 | 16.1 | 0.00 | 0.00 | 0.00 | 48 | 1010.2 |
| 20260505220950 | 26 | 224 | 17.7 | 38.6 | 0.00 | 0.00 | 0.00 | 47 | 1010.4 |
| 20260505220447 | 27 | 189 | 11.3 | 20.9 | 0.00 | 0.00 | 0.00 | 48 | 1010.0 |
| 20260505215945 | 27 | 164 | 9.7 | 14.5 | 0.00 | 0.00 | 0.00 | 47 | 1010.1 |
| 20260505215443 | 27 | 237 | 11.3 | 22.5 | 0.00 | 0.00 | 0.00 | 46 | 1010.2 |
| 20260505214941 | 27 | 182 | 4.8 | 9.7 | 0.00 | 0.00 | 0.00 | 46 | 1010.0 |
| 20260505214438 | 27 | 216 | 12.9 | 20.9 | 0.00 | 0.00 | 0.00 | 45 | 1010.3 |
| 20260505213935 | 27 | 177 | 9.7 | 25.7 | 0.00 | 0.00 | 0.00 | 45 | 1009.9 |
| 20260505213433 | 27 | 188 | 16.1 | 22.5 | 0.00 | 0.00 | 0.00 | 44 | 1010.0 |
| 20260505212929 | 27 | 155 | 9.7 | 14.5 | 0.00 | 0.00 | 0.00 | 44 | 1010.0 |
| 20260505212426 | 27 | 211 | 9.7 | 20.9 | 0.00 | 0.00 | 0.00 | 43 | 1010.0 |
| 20260505211922 | 28 | 124 | 17.7 | 22.5 | 0.00 | 0.00 | 0.00 | 42 | 1009.8 |
| 20260505211420 | 28 | 134 | 1.6 | 4.8 | 0.00 | 0.00 | 0.00 | 42 | 1009.9 |
| 20260505210916 | 28 | 195 | 9.7 | 17.7 | 0.00 | 0.00 | 0.00 | 40 | 1009.6 |
| 20260505210423 | 28 | 187 | 9.7 | 17.7 | 0.00 | 0.00 | 0.00 | 41 | 1009.8 |
| 20260505205910 | 28 | 4 | 8.0 | 14.5 | 0.00 | 0.00 | 0.00 | 41 | 1009.8 |
| 20260505205409 | 28 | 204 | 3.2 | 14.5 | 0.00 | 0.00 | 0.00 | 41 | 1009.6 |
| 20260505204905 | 28 | 247 | 11.3 | 20.9 | 0.00 | 0.00 | 0.00 | 40 | 1009.7 |
| 20260505204403 | 28 | 57 | 3.2 | 9.7 | 0.00 | 0.00 | 0.00 | 40 | 1009.6 |
| 20260505203900 | 28 | 63 | 4.8 | 16.1 | 0.00 | 0.00 | 0.00 | 39 | 1009.9 |
| 20260505203356 | 28 | 155 | 3.2 | 12.9 | 0.00 | 0.00 | 0.00 | 39 | 1009.6 |
| 20260505202853 | 28 | 26 | 3.2 | 12.9 | 0.00 | 0.00 | 0.00 | 39 | 1009.7 |